Location: Baitenhausen
(47.7156°N, 9.2977°E)
Time: 09:54:45
(UTC+00:00)

Daily predictions for brighter satellites

Satellite Brightness Start Highest point End
(mag) Time Altitude Azimuth Time Altitude Azimuth Time Altitude Azimuth
BREEZE-M DEB (TANK) 3.4 19:27:11 10° SSW 19:30:25 45° SE 19:40:05 10° ENE
Cosmos 1680 Rocket 4.5 19:30:11 10° SSE 19:34:34 27° E 19:38:56 10° NE
Cosmos 1076 Rocket 3.5 19:31:48 10° S 19:36:09 82° E 19:40:32 10° N
Cosmos 1689 Rocket 3.6 19:34:20 10° N 19:36:56 38° WNW 19:39:31 10° SW
Resurs 01 Rocket 1.8 19:32:41 10° SSE 19:37:02 59° ENE 19:41:26 10° N
SL-16 R/B 2.5 19:35:00 10° NNW 19:40:37 58° ENE 19:46:13 10° SE
Cosmos 1151 Rocket 4.3 19:37:24 10° NNE 19:41:07 27° ENE 19:44:50 10° SE
Terra 3.7 19:41:11 10° E 19:44:02 16° ENE 19:46:55 10° NNE
ATLAS 5 CENTAUR R/B 4.1 19:40:18 10° NNW 19:44:03 20° NNE 19:48:14 10° ENE
RESURS DK-1 4.0 19:41:18 10° SW 19:45:14 40° NW 19:49:11 10° NNE
Meteor 2-3 Rocket 4.0 19:41:31 10° S 19:46:59 52° E 19:52:33 10° NNE
Cosmos 332 Rocket 3.9 19:42:24 10° NNW 19:47:19 90° WNW 19:52:14 10° SSE
SPOT 3 Rocket 3.7 19:42:40 10° SSE 19:47:49 63° ENE 19:52:59 10° N
Cosmos 1933 3.4 19:48:21 10° N 19:52:24 67° E 19:56:24 10° SSE
Cosmos 1271 Rocket 2.9 19:49:42 10° N 19:53:40 59° ENE 19:57:38 10° SSE
Gbstr 26 Del rocket 2.9 19:51:06 10° WNW 19:54:46 60° SSW 19:58:12 13° SE
Cosmos 1538 Rocket 4.3 19:50:59 10° SSW 19:56:11 73° WNW 20:01:23 10° NNE
OBJECT-B 3.6 19:55:03 10° SW 19:57:17 17° W 19:59:31 10° NW
SPOT 5 3.9 19:57:34 12° ESE 20:00:51 26° ENE 20:04:33 10° N
IGS 5A 3.6 19:57:07 10° S 20:01:15 78° WSW 20:05:25 10° NNW
Cosmos 2098 Rocket 3.5 19:58:16 10° SSW 20:01:29 52° WNW 20:05:25 10° N
ARIANE 5 R/B 3.6 19:58:58 12° SE 20:02:29 32° ENE 20:06:27 10° N
Meteor 2-19 Rocket 4.4 19:56:49 10° S 20:02:51 80° E 20:08:56 10° NNE
Cosmos 2195 Rocket 4.5 19:59:17 10° S 20:05:20 68° E 20:11:25 10° NNE
Ariane Rocket 3.8 20:02:02 10° S 20:06:57 51° W 20:11:55 10° NNW
Cosmos 1782 2.9 20:04:22 10° N 20:08:21 59° ENE 20:11:44 14° SSE
Landsat 7 4.0 20:03:39 10° S 20:08:24 78° WSW 20:13:12 10° NNW
Cosmos 1624 Rocket 4.4 20:07:00 10° NNW 20:12:04 49° ENE 20:16:05 16° SE
Cosmos 304 Rocket 4.3 20:08:07 10° NNW 20:12:50 57° WSW 20:17:30 10° S
Cosmos 2082 Rocket 3.9 20:07:56 10° WSW 20:13:10 38° NW 20:18:27 10° NNE
Cosmos 220 Rocket 4.2 20:10:59 10° NNW 20:15:19 62° ENE 20:18:36 17° SE
ATLAS 3B R/B 3.9 20:13:04 10° NW 20:19:31 38° WSW 20:26:10 10° S
Cosmos 2360 Rocket 2.5 20:14:09 10° NNW 20:19:42 55° ENE 20:23:55 17° SE
ATLAS 2AS CENTAUR R/B 4.4 20:15:00 10° WSW 20:22:22 41° NNW 20:29:32 10° NE
MetOp-B 4.3 20:18:53 10° S 20:24:14 77° WSW 20:29:38 10° NNW
Cosmos 1174 4.4 20:22:11 10° NNW 20:24:55 30° NE 20:26:29 19° E
Cosmos 1092 Rocket 4.1 20:20:22 10° S 20:26:38 82° W 20:33:01 10° N
ISS -1.2 20:29:02 10° WSW 20:30:25 12° SW 20:31:47 10° SSW
Cosmos 2151 4.1 20:27:30 10° SSW 20:31:35 44° WNW 20:35:42 10° N
NOSS 2-1 (C) 2.9 20:28:31 10° SSW 20:31:44 49° SE 20:34:58 10° NE
ERS-2 3.8 20:30:35 10° N 20:33:56 35° WNW 20:37:15 10° SW
Cosmos 2026 Rocket 4.1 20:29:17 10° S 20:35:38 86° W 20:41:56 10° N
Cosmos 2084 3.2 20:33:14 10° SSW 20:37:17 74° SE 20:41:27 10° NE
COSMOS 2455 3.7 20:34:51 19° SSE 20:37:46 28° ESE 20:42:45 10° NE
Cosmos 1812 2.7 20:34:34 10° N 20:38:26 65° ENE 20:40:31 25° SSE
NOSS 2-1 (D) 2.7 20:36:12 10° SSW 20:39:28 60° SE 20:42:47 10° NE
GP-B 3.1 20:35:38 10° N 20:40:06 82° W 20:44:00 13° S
Cosmos 2333 Rocket 2.9 20:35:23 10° NNW 20:40:46 42° NE 20:44:24 19° ESE
Cosmos 923 Rocket 4.4 20:37:02 10° SSW 20:42:20 67° WNW 20:47:42 10° NNE
BREEZE-M DEB (TANK) 4.5 20:39:25 10° W 20:43:05 45° SSW 20:49:45 19° SE
SPOT 1/Viking Rocket 4.0 20:38:27 12° S 20:43:15 59° W 20:48:26 10° NNW
ERS-1 Rocket 3.0 20:40:25 21° SSE 20:43:43 68° ENE 20:48:43 10° N
USA 245 3.9 20:42:07 15° S 20:45:59 62° WSW 20:49:50 10° NNW
SL-27 R/B 2.5 20:44:42 23° S 20:46:43 57° ESE 20:50:16 10° NNE
Cosmos 2322 4.4 20:42:30 10° NNW 20:48:00 45° NE 20:51:30 21° ESE
Okean 3 Rocket 3.7 20:48:05 12° SSW 20:52:17 81° W 20:56:51 10° N
USA 276 4.2 20:50:41 10° W 20:52:43 16° SW 20:53:10 16° SSW
Cosmos 2056 Rocket 3.6 20:47:38 10° NNW 20:53:00 81° WSW 20:56:16 24° SSE
Cosmos 2237 Rocket 4.2 20:49:09 10° N 20:53:03 18° NE 20:56:58 10° E
Cosmos 1408 Rocket 3.6 20:50:54 26° SSE 20:53:10 56° E 20:57:25 10° NNE
Cosmos 2322 Rocket 2.7 20:48:31 10° NW 20:53:59 54° WSW 20:57:55 19° S
Meteor 2-14 Rocket 4.4 20:48:52 13° S 20:54:23 77° E 21:00:32 10° NNE
Cosmos 1743 Rocket 4.4 20:55:45 28° SE 20:57:04 34° E 21:01:05 10° NNE
CARTOSAT-1 4.1 20:59:31 20° S 21:02:19 55° W 21:06:35 10° NNW
Meteor 1-10 Rocket 4.1 20:58:34 10° N 21:04:09 79° ENE 21:07:16 27° SSE
USA 234 4.3 20:58:10 10° E 21:04:18 44° NNE 21:10:26 10° WNW
Spot 2 Rocket 4.0 21:03:04 19° S 21:06:42 56° W 21:11:45 10° NNW
Cosmos 2219 Rocket 2.5 21:06:08 10° NNW 21:11:40 56° ENE 21:14:26 29° SE
Resurs 01 Rocket 4.1 21:11:06 10° SW 21:13:55 16° W 21:16:46 10° NW
BREEZE M DEB (TANK) 4.2 21:11:39 10° SW 21:15:53 61° SSE 21:43:40 10° E
Cosmos 1515 Rocket 3.6 21:14:18 10° NNW 21:18:44 76° W 21:20:36 34° S
Terra 1.8 21:19:00 32° S 21:21:12 78° WSW 21:26:00 10° NNW
Cosmos 1553 Rocket 4.4 21:16:08 10° NNW 21:22:04 57° W 21:26:23 19° SSW
Cosmos 2285 Rocket 4.2 21:16:57 10° NNW 21:23:12 62° ENE 21:26:17 31° SE
Cosmos 2266 Rocket 3.9 21:19:57 27° S 21:23:29 72° E 21:29:44 10° NNE
SL-16 R/B 3.9 21:19:47 10° NW 21:24:19 25° WSW 21:28:20 12° SSW
Cosmos 2315 Rocket 4.1 21:21:43 10° N 21:28:01 63° ENE 21:30:56 33° SSE
ATLAS 5 CENTAUR R/B 2.7 21:24:20 10° NW 21:29:41 57° NE 21:33:06 26° ESE
Cosmos 2333 4.2 21:25:18 10° NNW 21:30:55 79° WSW 21:33:17 36° SSE
Cosmos 2228 Rocket 3.1 21:29:48 10° N 21:34:12 65° ENE 21:35:17 47° SE
NOSS 2-1 (E) 4.3 21:34:40 10° WSW 21:37:46 39° NW 21:41:06 10° NNE
SPOT 5 3.8 21:36:48 23° SW 21:38:49 36° W 21:42:55 10° NNW
ARIANE 5 R/B 4.1 21:36:32 18° SW 21:38:56 30° W 21:42:52 10° NW
COSMOS 2428 2.7 21:33:34 10° NNW 21:39:17 74° ENE 21:41:31 38° SE
Cosmos 883 Rocket 4.5 21:36:36 10° N 21:42:53 88° W 21:45:47 35° S
NOSS 3-1 (C) 4.2 21:37:34 10° NW 21:45:01 69° SW 21:49:24 32° SSE
Cosmos 1707 Rocket 4.3 21:41:10 10° N 21:45:17 39° ENE 21:45:57 36° E
IRIDIUM 106 4.2 21:41:33 10° N 21:46:49 79° E 21:48:29 44° SSE
Cosmos 1048 Rocket 3.9 21:48:39 46° SSE 21:50:00 64° ESE 21:55:05 10° NNE
Cosmos 1655 Rocket 4.5 21:54:13 20° SSW 21:58:39 60° WNW 22:05:00 10° N
ALOS 2 3.7 21:59:22 29° E 22:00:10 32° ENE 22:04:04 10° N
COSMOS 2487 2.6 22:00:10 62° WNW 22:00:13 62° WNW 22:03:36 10° NNE
USA 229 DEB 3.9 21:53:39 10° NW 22:00:59 82° SW 22:04:27 37° SSE
USA 229 3.9 21:53:45 10° NW 22:01:05 82° SW 22:04:33 37° SSE
Cosmos 972 Rocket 4.0 21:59:17 34° SSW 22:01:37 80° WNW 22:06:36 10° NNE
Cosmos 1805 Rocket 3.5 22:02:11 59° SSW 22:03:00 88° W 22:07:28 10° N
Cosmos 2360 Rocket 3.7 21:58:43 10° NW 22:03:21 27° WSW 22:05:41 20° SW
Cosmos 2084 Rocket 3.8 22:04:23 10° NW 22:08:31 57° NE 22:09:18 48° E
CZ-4C R/B 4.3 22:04:24 10° NNW 22:10:17 31° NNE 22:17:07 10° E
USA 267 3.3 22:05:52 10° ENE 22:12:16 54° SE 22:14:48 35° SSW
Cosmos 1980 4.0 22:10:04 10° NNW 22:15:41 58° ENE 22:17:31 40° ESE
NOSS 0 Rocket 3.9 22:10:34 10° NNW 22:16:51 83° ENE 22:18:54 45° SE
NOSS 3-1 (A) 4.2 22:14:02 10° NW 22:21:29 67° SW 22:25:00 38° SSE
COSMOS 2455 3.2 22:17:53 13° SW 22:23:18 62° NW 22:29:18 10° NNE
Lacrosse 5 2.6 22:25:50 37° E 22:25:50 37° E 22:29:27 10° ENE
Meteor 1-20 Rocket 4.2 22:23:03 44° SSW 22:24:54 80° WNW 22:30:39 10° N
Cosmos 2333 Rocket 3.1 22:19:50 10° NW 22:24:58 36° WSW 22:26:23 31° SW
Cosmos 1452 Rocket 4.3 22:20:13 10° NW 22:25:04 39° WSW 22:26:16 34° SW
Nadezhda 2 Rocket 4.5 22:23:24 44° S 22:25:37 86° E 22:32:05 10° N
COBE Rocket 3.8 22:26:51 58° SW 22:27:30 67° W 22:32:13 10° NNW
BREEZE-M R/B 2.8 22:27:39 10° WSW 22:31:56 53° E 22:35:46 10° ENE
Cosmos 2297 Rocket 2.6 22:32:07 42° ESE 22:32:24 42° ESE 22:37:43 10° NE
Cosmos 1500 3.5 22:34:31 61° NE 22:34:31 61° NE 22:37:51 10° NNE
Sich 1 3.5 22:34:10 47° WSW 22:34:51 53° WNW 22:39:07 10° N
Cosmos 1244 Rocket 4.4 22:34:47 46° SSW 22:36:47 85° W 22:43:02 10° N
Cosmos 2237 Rocket 2.2 22:32:23 10° NNW 22:38:06 78° ENE 22:39:29 53° SE
Cosmos 1470 Rocket 3.9 22:43:08 51° E 22:43:08 51° E 22:47:04 10° NNE
Cosmos 1633 Rocket 2.9 22:44:04 87° WSW 22:44:07 87° W 22:48:30 10° N
BREEZE-M DEB (TANK) 4.3 22:41:11 10° W 22:42:20 16° W 22:42:20 16° W
Cosmos 2227 Rocket 2.7 22:44:30 40° ESE 22:44:40 40° ESE 22:49:55 10° NE
USA 234 3.3 22:42:59 27° ESE 22:46:53 79° NNE 22:53:28 10° NW
Cosmos 1110 Rocket 4.4 22:42:20 10° NNW 22:47:27 48° WSW 22:48:10 45° SW
Cosmos 1933 Rocket 4.3 22:49:28 40° E 22:49:28 40° E 22:53:26 10° NNE
Cosmos 1331 Rocket 4.3 22:44:53 10° NNW 22:49:56 50° WSW 22:50:32 47° SW
APEX 4.4 22:48:05 43° SW 22:50:13 81° WNW 22:56:59 10° NNE
Cosmos 1666 Rocket 3.7 22:50:45 60° WSW 22:51:07 62° WNW 22:55:33 10° N
Cosmos 2242 Rocket 4.4 22:49:21 10° N 22:53:32 39° ENE 22:53:46 39° E
Cosmos 1340 Rocket 3.9 22:54:24 36° ENE 22:54:24 36° ENE 22:57:20 10° NNE
Cosmos 2219 Rocket 3.5 22:50:44 10° NW 22:55:14 25° WSW 22:56:08 24° WSW
Cosmos 1378 4.4 22:52:54 10° N 22:55:52 34° NE 22:55:52 34° NE
NOSS 2-2 (E) 4.4 22:53:28 10° NW 22:58:53 79° SW 23:00:50 49° SSE
SL-16 R/B 2.8 23:02:04 10° NNW 23:07:36 51° NE 23:09:38 35° ESE
Cosmos 1862 Rocket 4.2 23:10:04 10° NNW 23:14:06 45° W 23:14:06 45° W
ATLAS 5 CENTAUR R/B 3.2 23:09:07 10° NW 23:14:18 35° WSW 23:14:35 35° SW
STPSAT 2 (USA 217) 4.5 23:10:12 10° NNW 23:14:46 88° WNW 23:14:46 88° WNW
Okean 3 4.4 23:11:53 10° N 23:15:54 38° ENE 23:16:01 38° ENE
COSMOS 2428 4.4 23:18:59 10° NW 23:22:55 19° W 23:23:31 19° WSW
NOSS 2-2 (C) 4.4 23:18:31 10° NW 23:23:51 66° SW 23:25:11 54° S
Meteor 2-4 Rocket 4.0 23:18:06 10° NNW 23:23:54 57° W 23:24:59 50° SW
Intercosmos 25 Rocket 4.1 23:24:02 51° E 23:24:08 51° E 23:29:42 10° NNE
Cosmos 1743 4.4 23:25:44 25° ENE 23:25:44 25° ENE 23:28:18 10° NNE
Cosmos 1666 3.4 23:26:25 50° NW 23:26:25 50° NW 23:29:45 10° N
Meteor 1-11 Rocket 3.8 23:25:58 53° SE 23:26:43 58° E 23:32:08 10° NNE
Cosmos 1703 Rocket 3.5 23:25:25 10° N 23:29:38 83° NNW 23:29:38 83° NNW
Cosmos 1709 Rocket 4.0 23:30:39 54° S 23:32:12 79° E 23:38:37 10° N
PSLV R/B 3.8 23:29:15 10° NNE 23:34:01 64° ESE 23:34:07 64° ESE
Cosmos 1992 Rocket 3.8 23:30:50 10° NNW 23:36:06 88° WSW 23:36:41 71° SSE
ALOS 2 3.9 23:36:46 29° W 23:36:46 29° W 23:40:22 10° NW
Meteor 1-5 Rocket 4.5 23:35:45 48° SW 23:37:08 63° WNW 23:43:01 10° N
Cosmos 909 Rocket 4.2 23:36:15 49° SSW 23:38:16 80° ESE 23:46:07 10° NE
Cosmos 1745 Rocket 4.3 23:39:17 42° SW 23:41:08 57° WNW 23:47:22 10° N
Cosmos 2219 3.3 23:42:23 50° SW 23:43:51 71° WNW 23:49:38 10° NNE
CZ-2D R/B 4.1 23:40:29 10° NE 23:43:55 17° E 23:45:32 15° ESE
Cosmos 1066 Rocket 4.2 23:41:37 10° NNW 23:47:32 86° W 23:48:43 59° S
Meteor 1-13 Rocket 4.2 23:45:48 10° NNW 23:51:32 69° W 23:52:26 59° SSW
Timation 1 Rocket 4.3 23:51:21 54° SW 23:52:50 84° WNW 23:58:52 10° NNE
